Year,Month,Day,Hour,Minute,Value (Times are PST for temperature in C)
2019,03,18,00,00,7.80
2019,03,18,00,01,7.80
2019,03,18,00,02,7.80
2019,03,18,00,03,7.80
2019,03,18,00,04,7.80
2019,03,18,00,05,7.70
2019,03,18,00,06,7.70
2019,03,18,00,07,7.70
2019,03,18,00,08,7.70
2019,03,18,00,09,7.70
2019,03,18,00,10,7.70
2019,03,18,00,11,7.70
2019,03,18,00,12,7.60
2019,03,18,00,13,7.60
2019,03,18,00,14,7.60
2019,03,18,00,15,7.60
2019,03,18,00,16,7.60
2019,03,18,00,17,7.60
2019,03,18,00,18,7.60
2019,03,18,00,19,7.60
2019,03,18,00,20,7.60
2019,03,18,00,21,7.60
2019,03,18,00,22,7.60
2019,03,18,00,23,7.60
2019,03,18,00,24,7.50
2019,03,18,00,25,7.50
2019,03,18,00,26,7.50
2019,03,18,00,27,7.40
2019,03,18,00,28,7.40
2019,03,18,00,29,7.40
2019,03,18,00,30,7.30
2019,03,18,00,31,7.30
2019,03,18,00,32,7.30
2019,03,18,00,33,7.30
2019,03,18,00,34,7.30
2019,03,18,00,35,7.30
2019,03,18,00,36,7.30
2019,03,18,00,37,7.30
2019,03,18,00,38,7.30
2019,03,18,00,39,7.30
2019,03,18,00,40,7.20
2019,03,18,00,41,7.20
2019,03,18,00,42,7.20
2019,03,18,00,43,7.20
2019,03,18,00,44,7.20
2019,03,18,00,45,7.20
2019,03,18,00,46,7.20
2019,03,18,00,47,7.20
2019,03,18,00,48,7.20
2019,03,18,00,49,7.20
2019,03,18,00,50,7.20
2019,03,18,00,51,7.20
2019,03,18,00,52,7.20
2019,03,18,00,53,7.20
2019,03,18,00,54,7.20
2019,03,18,00,55,7.10
2019,03,18,00,56,7.10
2019,03,18,00,57,7.10
2019,03,18,00,58,7.10
2019,03,18,00,59,7.10
2019,03,18,01,00,7.10
2019,03,18,01,01,7.10
2019,03,18,01,02,7.10
2019,03,18,01,03,7.10
2019,03,18,01,04,7.10
2019,03,18,01,05,7.10
2019,03,18,01,06,7.10
2019,03,18,01,07,7.10
2019,03,18,01,08,7.10
2019,03,18,01,09,7.00
2019,03,18,01,10,7.00
2019,03,18,01,11,7.00
2019,03,18,01,12,6.90
2019,03,18,01,13,6.90
2019,03,18,01,14,6.90
2019,03,18,01,15,6.90
2019,03,18,01,16,6.90
2019,03,18,01,17,6.90
2019,03,18,01,18,6.80
2019,03,18,01,19,6.80
2019,03,18,01,20,6.80
2019,03,18,01,21,6.80
2019,03,18,01,22,6.80
2019,03,18,01,23,6.80
2019,03,18,01,24,6.70
2019,03,18,01,25,6.70
2019,03,18,01,26,6.70
2019,03,18,01,27,6.70
2019,03,18,01,28,6.70
2019,03,18,01,29,6.70
2019,03,18,01,30,6.70
2019,03,18,01,31,6.70
2019,03,18,01,32,6.70
2019,03,18,01,33,6.70
2019,03,18,01,34,6.70
2019,03,18,01,35,6.70
2019,03,18,01,36,6.70
2019,03,18,01,37,6.70
2019,03,18,01,38,6.70
2019,03,18,01,39,6.70
2019,03,18,01,40,6.70
2019,03,18,01,41,6.70
2019,03,18,01,42,6.60
2019,03,18,01,43,6.60
2019,03,18,01,44,6.60
2019,03,18,01,45,6.60
2019,03,18,01,46,6.60
2019,03,18,01,47,6.50
2019,03,18,01,48,6.50
2019,03,18,01,49,6.50
2019,03,18,01,50,6.50
2019,03,18,01,51,6.40
2019,03,18,01,52,6.40
2019,03,18,01,53,6.40
2019,03,18,01,54,6.40
2019,03,18,01,55,6.40
2019,03,18,01,56,6.40
2019,03,18,01,57,6.40
2019,03,18,01,58,6.40
2019,03,18,01,59,6.40
2019,03,18,02,00,6.40
2019,03,18,02,01,6.40
2019,03,18,02,02,6.40
2019,03,18,02,03,6.40
2019,03,18,02,04,6.40
2019,03,18,02,05,6.30
2019,03,18,02,06,6.30
2019,03,18,02,07,6.30
2019,03,18,02,08,6.30
2019,03,18,02,09,6.30
2019,03,18,02,10,6.30
2019,03,18,02,11,6.30
2019,03,18,02,12,6.30
2019,03,18,02,13,6.30
2019,03,18,02,14,6.30
2019,03,18,02,15,6.30
2019,03,18,02,16,6.30
2019,03,18,02,17,6.30
2019,03,18,02,18,6.30
2019,03,18,02,19,6.30
2019,03,18,02,20,6.30
2019,03,18,02,21,6.30
2019,03,18,02,22,6.30
2019,03,18,02,23,6.40
2019,03,18,02,24,6.40
2019,03,18,02,25,6.40
2019,03,18,02,26,6.40
2019,03,18,02,27,6.50
2019,03,18,02,28,6.50
2019,03,18,02,29,6.50
2019,03,18,02,30,6.60
2019,03,18,02,31,6.60
2019,03,18,02,32,6.60
2019,03,18,02,33,6.60
2019,03,18,02,34,6.60
2019,03,18,02,35,6.60
2019,03,18,02,36,6.60
2019,03,18,02,37,6.60
2019,03,18,02,38,6.60
2019,03,18,02,39,6.60
2019,03,18,02,40,6.50
2019,03,18,02,41,6.50
2019,03,18,02,42,6.50
2019,03,18,02,43,6.50
2019,03,18,02,44,6.50
2019,03,18,02,45,6.50
2019,03,18,02,46,6.40
2019,03,18,02,47,6.40
2019,03,18,02,48,6.40
2019,03,18,02,49,6.40
2019,03,18,02,50,6.40
2019,03,18,02,51,6.40
2019,03,18,02,52,6.40
2019,03,18,02,53,6.40
2019,03,18,02,54,6.40
2019,03,18,02,55,6.40
2019,03,18,02,56,6.40
2019,03,18,02,57,6.40
2019,03,18,02,58,6.40
2019,03,18,02,59,6.40
2019,03,18,03,00,6.40
2019,03,18,03,01,6.40
2019,03,18,03,02,6.40
2019,03,18,03,03,6.40
2019,03,18,03,04,6.40
2019,03,18,03,05,6.40
2019,03,18,03,06,6.30
2019,03,18,03,07,6.30
2019,03,18,03,08,6.30
2019,03,18,03,09,6.30
2019,03,18,03,10,6.30
2019,03,18,03,11,6.30
2019,03,18,03,12,6.30
2019,03,18,03,13,6.20
2019,03,18,03,14,6.20
2019,03,18,03,15,6.20
2019,03,18,03,16,6.30
2019,03,18,03,17,6.30
2019,03,18,03,18,6.30
2019,03,18,03,19,6.30
2019,03,18,03,20,6.30
2019,03,18,03,21,6.30
2019,03,18,03,22,6.30
2019,03,18,03,23,6.30
2019,03,18,03,24,6.30
2019,03,18,03,25,6.30
2019,03,18,03,26,6.30
2019,03,18,03,27,6.30
2019,03,18,03,28,6.30
2019,03,18,03,29,6.30
2019,03,18,03,30,6.30
2019,03,18,03,31,6.30
2019,03,18,03,32,6.30
2019,03,18,03,33,6.30
2019,03,18,03,34,6.30
2019,03,18,03,35,6.30
2019,03,18,03,36,6.30
2019,03,18,03,37,6.30
2019,03,18,03,38,6.30
2019,03,18,03,39,6.30
2019,03,18,03,40,6.30
2019,03,18,03,41,6.30
2019,03,18,03,42,6.30
2019,03,18,03,43,6.30
2019,03,18,03,44,6.20
2019,03,18,03,45,6.20
2019,03,18,03,46,6.20
2019,03,18,03,47,6.20
2019,03,18,03,48,6.20
2019,03,18,03,49,6.20
2019,03,18,03,50,6.20
2019,03,18,03,51,6.20
2019,03,18,03,52,6.20
2019,03,18,03,53,6.20
2019,03,18,03,54,6.20
2019,03,18,03,55,6.20
2019,03,18,03,56,6.20
2019,03,18,03,57,6.20
2019,03,18,03,58,6.20
2019,03,18,03,59,6.20
2019,03,18,04,00,6.20
2019,03,18,04,01,6.20
2019,03,18,04,02,6.20
2019,03,18,04,03,6.20
2019,03,18,04,04,6.20
2019,03,18,04,05,6.20
2019,03,18,04,06,6.30
2019,03,18,04,07,6.30
2019,03,18,04,08,6.30
2019,03,18,04,09,6.30
2019,03,18,04,10,6.30
2019,03,18,04,11,6.30
2019,03,18,04,12,6.30
2019,03,18,04,13,6.30
2019,03,18,04,14,6.40
2019,03,18,04,15,6.40
2019,03,18,04,16,6.50
2019,03,18,04,17,6.60
2019,03,18,04,18,6.60
2019,03,18,04,19,6.60
2019,03,18,04,20,6.70
2019,03,18,04,21,6.70
2019,03,18,04,22,6.80
2019,03,18,04,23,6.90
2019,03,18,04,24,7.00
2019,03,18,04,25,7.10
2019,03,18,04,26,7.30
2019,03,18,04,27,7.40
2019,03,18,04,28,7.50
2019,03,18,04,29,7.60
2019,03,18,04,30,7.70
2019,03,18,04,31,7.70
2019,03,18,04,32,7.80
2019,03,18,04,33,7.90
2019,03,18,04,34,7.90
2019,03,18,04,35,8.00
2019,03,18,04,36,8.00
2019,03,18,04,37,8.00
2019,03,18,04,38,8.00
2019,03,18,04,39,8.10
2019,03,18,04,40,8.10
2019,03,18,04,41,8.10
2019,03,18,04,42,8.10
2019,03,18,04,43,8.20
2019,03,18,04,44,8.20
2019,03,18,04,45,8.20
2019,03,18,04,46,8.20
2019,03,18,04,47,8.30
2019,03,18,04,48,8.30
2019,03,18,04,49,8.30
2019,03,18,04,50,8.20
2019,03,18,04,51,8.20
2019,03,18,04,52,8.10
2019,03,18,04,53,8.10
2019,03,18,04,54,8.00
2019,03,18,04,55,7.90
2019,03,18,04,56,7.90
2019,03,18,04,57,7.80
2019,03,18,04,58,7.80
2019,03,18,04,59,7.70
2019,03,18,05,00,7.70
2019,03,18,05,01,7.70
2019,03,18,05,02,7.70
2019,03,18,05,03,7.60
2019,03,18,05,04,7.60
2019,03,18,05,05,7.60
2019,03,18,05,06,7.60
2019,03,18,05,07,7.60
2019,03,18,05,08,7.60
2019,03,18,05,09,7.70
2019,03,18,05,10,7.70
2019,03,18,05,11,7.70
2019,03,18,05,12,7.70
2019,03,18,05,13,7.70
2019,03,18,05,14,7.70
2019,03,18,05,15,7.70
2019,03,18,05,16,7.70
2019,03,18,05,17,7.70
2019,03,18,05,18,7.70
2019,03,18,05,19,7.70
2019,03,18,08,09,8.30
2019,03,18,08,10,8.30
2019,03,18,08,11,8.40
2019,03,18,08,12,8.40
2019,03,18,08,13,8.40
2019,03,18,08,14,8.40
2019,03,18,08,15,8.40
2019,03,18,08,16,8.50
2019,03,18,08,17,8.50
2019,03,18,08,18,8.50
2019,03,18,08,19,8.60
2019,03,18,08,20,8.60
2019,03,18,08,21,8.70
2019,03,18,08,22,8.70
2019,03,18,08,23,8.80
2019,03,18,08,24,8.90
2019,03,18,08,25,8.90
2019,03,18,08,26,9.00
2019,03,18,08,27,9.00
2019,03,18,08,28,9.10
2019,03,18,08,29,9.10
2019,03,18,08,30,9.20
2019,03,18,08,31,9.20
2019,03,18,08,32,9.30
2019,03,18,08,33,9.40
2019,03,18,08,34,9.50
2019,03,18,08,35,9.50
2019,03,18,08,36,9.60
2019,03,18,08,37,9.70
2019,03,18,08,38,9.70
2019,03,18,08,39,9.70
2019,03,18,08,40,9.80
2019,03,18,08,41,9.80
2019,03,18,08,42,9.90
2019,03,18,08,43,9.90
2019,03,18,08,44,9.90
2019,03,18,08,45,10.00
2019,03,18,08,46,10.00
2019,03,18,08,47,10.10
2019,03,18,08,48,10.10
2019,03,18,08,49,10.10
2019,03,18,08,50,10.20
2019,03,18,08,51,10.20
2019,03,18,08,52,10.20
2019,03,18,08,53,10.30
2019,03,18,08,54,10.30
2019,03,18,08,55,10.40
2019,03,18,08,56,10.40
2019,03,18,08,57,10.50
2019,03,18,08,58,10.50
2019,03,18,08,59,10.60
2019,03,18,09,00,10.60
2019,03,18,09,01,10.60
2019,03,18,09,02,10.70
2019,03,18,09,03,10.70
2019,03,18,09,04,10.80
2019,03,18,09,05,10.80
2019,03,18,09,06,10.80
2019,03,18,09,07,10.90
2019,03,18,09,08,10.90
2019,03,18,09,09,11.00
2019,03,18,09,10,11.00
2019,03,18,09,11,11.10
2019,03,18,09,12,11.10
2019,03,18,09,13,11.10
2019,03,18,09,14,11.10
2019,03,18,09,15,11.10
2019,03,18,09,16,11.20
2019,03,18,09,17,11.20
2019,03,18,09,18,11.20
2019,03,18,09,19,11.20
2019,03,18,09,20,11.20
2019,03,18,09,21,11.30
2019,03,18,09,22,11.30
2019,03,18,09,23,11.30
2019,03,18,09,24,11.30
2019,03,18,09,25,11.30
2019,03,18,09,26,11.30
2019,03,18,09,27,11.40
2019,03,18,09,28,11.40
2019,03,18,09,29,11.40
2019,03,18,09,30,11.40
2019,03,18,09,31,11.40
2019,03,18,09,32,11.40
2019,03,18,09,33,11.40
2019,03,18,09,34,11.50
2019,03,18,09,35,11.50
2019,03,18,09,36,11.50
2019,03,18,09,37,11.50
2019,03,18,09,38,11.60
2019,03,18,09,39,11.60
2019,03,18,09,40,11.60
2019,03,18,09,41,11.60
2019,03,18,09,42,11.60
2019,03,18,09,43,11.60
2019,03,18,09,44,11.60
2019,03,18,09,45,11.60
2019,03,18,09,46,11.60
2019,03,18,09,47,11.60
2019,03,18,09,48,11.60
2019,03,18,09,49,11.70
2019,03,18,09,50,11.70
2019,03,18,09,51,11.70
2019,03,18,09,52,11.70
2019,03,18,09,53,11.70
2019,03,18,09,54,11.70
2019,03,18,09,55,11.80
2019,03,18,09,56,11.80
2019,03,18,09,57,11.80
2019,03,18,09,58,11.80
2019,03,18,09,59,11.80
2019,03,18,10,00,11.90
2019,03,18,10,01,11.90
2019,03,18,10,02,11.90
2019,03,18,10,03,11.90
2019,03,18,10,04,12.00
2019,03,18,10,05,12.00
2019,03,18,10,06,12.00
2019,03,18,10,07,12.10
2019,03,18,10,08,12.10
2019,03,18,10,09,12.10
2019,03,18,10,10,12.10
2019,03,18,10,11,12.10
2019,03,18,10,12,12.20
2019,03,18,10,13,12.20
2019,03,18,10,14,12.30
2019,03,18,10,15,12.30
2019,03,18,10,16,12.30
2019,03,18,10,17,12.40
2019,03,18,10,18,12.40
2019,03,18,10,19,12.50
2019,03,18,10,20,12.50
2019,03,18,10,21,12.60
2019,03,18,10,22,12.60
2019,03,18,10,23,12.60
2019,03,18,10,24,12.60
2019,03,18,10,25,12.60
2019,03,18,10,26,12.60
2019,03,18,10,27,12.60
2019,03,18,10,28,12.60
2019,03,18,10,29,12.60
2019,03,18,10,30,12.70
2019,03,18,10,31,12.70
2019,03,18,10,32,12.70
2019,03,18,10,33,12.80
2019,03,18,10,34,12.80
2019,03,18,10,35,12.80
2019,03,18,10,36,12.80
2019,03,18,10,37,12.80
2019,03,18,10,38,12.80
2019,03,18,10,39,12.80
2019,03,18,10,40,12.80
2019,03,18,10,41,12.80
2019,03,18,10,42,12.80
2019,03,18,10,43,12.80
2019,03,18,10,44,12.80
2019,03,18,10,45,12.80
2019,03,18,10,46,12.80
2019,03,18,10,47,12.80
2019,03,18,10,48,12.90
2019,03,18,10,49,12.90
2019,03,18,10,50,12.90
2019,03,18,10,51,12.90
2019,03,18,10,52,12.90
2019,03,18,10,53,12.90
2019,03,18,10,54,13.00
2019,03,18,10,55,13.00
2019,03,18,10,56,13.00
2019,03,18,10,57,13.10
2019,03,18,10,58,13.10
2019,03,18,10,59,13.10
2019,03,18,11,00,13.20
2019,03,18,11,01,13.20
2019,03,18,11,02,13.20
2019,03,18,11,03,13.20
2019,03,18,11,04,13.20
2019,03,18,11,05,13.20
2019,03,18,11,06,13.20
2019,03,18,11,07,13.30
2019,03,18,11,08,13.30
2019,03,18,11,09,13.30
2019,03,18,11,10,13.30
2019,03,18,11,11,13.30
2019,03,18,11,12,13.30
2019,03,18,11,13,13.30
2019,03,18,11,14,13.40
2019,03,18,11,15,13.40
2019,03,18,11,16,13.40
2019,03,18,11,17,13.40
2019,03,18,11,18,13.40
2019,03,18,11,19,13.40
2019,03,18,11,20,13.40
2019,03,18,11,21,13.50
2019,03,18,11,22,13.50
2019,03,18,11,23,13.60
2019,03,18,11,24,13.60
2019,03,18,11,25,13.70
2019,03,18,11,26,13.70
2019,03,18,11,27,13.70
2019,03,18,11,28,13.70
2019,03,18,11,29,13.70
2019,03,18,11,30,13.70
2019,03,18,11,31,13.70
2019,03,18,11,32,13.70
2019,03,18,11,33,13.70
2019,03,18,11,34,13.70
2019,03,18,11,35,13.70
2019,03,18,11,36,13.80
2019,03,18,11,37,13.80
2019,03,18,11,38,13.80
2019,03,18,11,39,13.80
2019,03,18,11,40,13.80
2019,03,18,11,41,13.80
2019,03,18,11,42,13.80
2019,03,18,11,43,13.80
2019,03,18,11,44,13.80
2019,03,18,11,45,13.70
2019,03,18,11,46,13.70
2019,03,18,11,47,13.80
2019,03,18,11,48,13.80
2019,03,18,11,49,13.80
2019,03,18,11,50,13.70
2019,03,18,11,51,13.70
2019,03,18,11,52,13.70
2019,03,18,11,53,13.70
2019,03,18,11,54,13.60
2019,03,18,11,55,13.60
2019,03,18,11,56,13.60
2019,03,18,11,57,13.60
2019,03,18,11,58,13.60
2019,03,18,11,59,13.70
2019,03,18,12,00,13.70
2019,03,18,12,01,13.70
2019,03,18,12,02,13.80
2019,03,18,12,03,13.80
2019,03,18,12,04,13.90
2019,03,18,12,05,13.90
2019,03,18,12,06,13.90
2019,03,18,12,07,14.00
2019,03,18,12,08,14.00
2019,03,18,12,09,14.10
2019,03,18,12,10,14.10
2019,03,18,12,11,14.10
2019,03,18,12,12,14.10
2019,03,18,12,13,14.10
2019,03,18,12,14,14.10
2019,03,18,12,15,14.10
2019,03,18,12,16,14.10
2019,03,18,12,17,14.20
2019,03,18,12,18,14.20
2019,03,18,12,19,14.20
2019,03,18,12,20,14.10
2019,03,18,12,21,14.20
2019,03,18,12,22,14.20
2019,03,18,12,23,14.20
2019,03,18,12,24,14.30
2019,03,18,12,25,14.30
2019,03,18,12,26,14.30
2019,03,18,12,27,14.30
2019,03,18,12,28,14.30
2019,03,18,12,29,14.30
2019,03,18,12,30,14.40
2019,03,18,12,31,14.40
2019,03,18,12,32,14.40
2019,03,18,12,33,14.40
2019,03,18,12,34,14.50
2019,03,18,12,35,14.50
2019,03,18,12,36,14.60
2019,03,18,12,37,14.60
2019,03,18,12,38,14.60
2019,03,18,12,39,14.70
2019,03,18,12,40,14.70
2019,03,18,12,41,14.80
2019,03,18,12,42,14.80
2019,03,18,12,43,14.80
2019,03,18,12,44,14.90
2019,03,18,12,45,15.00
2019,03,18,12,46,15.00
2019,03,18,12,47,15.00
2019,03,18,12,48,15.00
2019,03,18,12,49,15.10
2019,03,18,12,50,15.10
2019,03,18,12,51,15.10
2019,03,18,12,52,15.10
2019,03,18,12,53,15.20
2019,03,18,12,54,15.20
2019,03,18,12,55,15.20
2019,03,18,12,56,15.20
2019,03,18,12,57,15.20
2019,03,18,12,58,15.30
2019,03,18,12,59,15.30
2019,03,18,13,00,15.30
2019,03,18,13,01,15.30
2019,03,18,13,02,15.40
2019,03,18,13,03,15.40
2019,03,18,13,04,15.50
2019,03,18,13,05,15.50
2019,03,18,13,06,15.40
2019,03,18,13,07,15.50
2019,03,18,13,08,15.50
2019,03,18,13,09,15.50
2019,03,18,13,10,15.60
2019,03,18,13,11,15.60
2019,03,18,13,12,15.60
2019,03,18,13,13,15.60
2019,03,18,13,14,15.60
2019,03,18,13,15,15.60
2019,03,18,13,16,15.60
2019,03,18,13,17,15.60
2019,03,18,13,18,15.60
2019,03,18,13,19,15.50
2019,03,18,13,20,15.50
2019,03,18,13,21,15.50
2019,03,18,13,22,15.50
2019,03,18,13,23,15.50
2019,03,18,13,24,15.50
2019,03,18,13,25,15.50
2019,03,18,13,26,15.50
2019,03,18,13,27,15.50
2019,03,18,13,28,15.60
2019,03,18,13,29,15.60
2019,03,18,13,30,15.70
2019,03,18,13,31,15.70
2019,03,18,13,32,15.70
2019,03,18,13,33,15.80
2019,03,18,13,34,15.80
2019,03,18,13,35,15.80
2019,03,18,13,36,15.80
2019,03,18,13,37,15.80
2019,03,18,13,38,15.80
2019,03,18,13,39,15.80
2019,03,18,13,40,15.90
2019,03,18,13,41,15.90
2019,03,18,13,42,15.90
2019,03,18,13,43,15.90
2019,03,18,13,44,15.90
2019,03,18,13,45,16.00
2019,03,18,13,46,16.00
2019,03,18,13,47,16.00
2019,03,18,13,48,16.00
2019,03,18,13,49,16.10
2019,03,18,13,50,16.10
2019,03,18,13,51,16.20
2019,03,18,13,52,16.20
2019,03,18,13,53,16.20
2019,03,18,13,54,16.20
2019,03,18,13,55,16.20
2019,03,18,13,56,16.30
2019,03,18,13,57,16.30
2019,03,18,13,58,16.40
2019,03,18,13,59,16.50
2019,03,18,14,00,16.50
2019,03,18,14,01,16.60
2019,03,18,14,02,16.60
2019,03,18,14,03,16.60
2019,03,18,14,04,16.60
2019,03,18,14,05,16.60
2019,03,18,14,06,16.70
2019,03,18,14,07,16.70
2019,03,18,14,08,16.70
2019,03,18,14,09,16.70
2019,03,18,14,10,16.80
2019,03,18,14,11,16.80
2019,03,18,14,12,16.80
2019,03,18,14,13,16.80
2019,03,18,14,14,16.80
2019,03,18,14,15,16.80
2019,03,18,14,16,16.70
2019,03,18,14,17,16.80
2019,03,18,14,18,16.80
2019,03,18,14,19,16.80
2019,03,18,14,20,16.80
2019,03,18,14,21,16.80
2019,03,18,14,22,16.90
2019,03,18,14,23,16.90
2019,03,18,14,24,17.00
2019,03,18,14,25,17.00
2019,03,18,14,26,17.10
2019,03,18,14,27,17.20
2019,03,18,14,28,17.20
2019,03,18,14,29,17.20
2019,03,18,14,30,17.20
2019,03,18,14,31,17.20
2019,03,18,14,32,17.20
2019,03,18,14,33,17.20
2019,03,18,14,34,17.30
2019,03,18,14,35,17.30
2019,03,18,14,36,17.30
2019,03,18,14,37,17.30
2019,03,18,14,38,17.30
2019,03,18,14,39,17.30
2019,03,18,14,40,17.30
2019,03,18,14,41,17.30
2019,03,18,14,42,17.30
2019,03,18,14,43,17.30
2019,03,18,14,44,17.40
2019,03,18,14,45,17.40
2019,03,18,14,46,17.40
2019,03,18,14,47,17.40
2019,03,18,14,48,17.40
2019,03,18,14,49,17.40
2019,03,18,14,50,17.50
2019,03,18,14,51,17.50
2019,03,18,14,52,17.50
2019,03,18,14,53,17.50
2019,03,18,14,54,17.50
2019,03,18,14,55,17.50
2019,03,18,14,56,17.50
2019,03,18,14,57,17.50
2019,03,18,14,58,17.50
2019,03,18,14,59,17.50
2019,03,18,15,00,17.50
2019,03,18,15,01,17.40
2019,03,18,15,02,17.40
2019,03,18,15,03,17.40
2019,03,18,15,04,17.40
2019,03,18,15,05,17.40
2019,03,18,15,06,17.50
2019,03,18,15,07,17.50
2019,03,18,15,08,17.60
2019,03,18,15,09,17.60
2019,03,18,15,10,17.60
2019,03,18,15,11,17.60
2019,03,18,15,12,17.60
2019,03,18,15,13,17.60
2019,03,18,15,14,17.60
2019,03,18,15,15,17.60
2019,03,18,15,16,17.60
2019,03,18,15,17,17.60
2019,03,18,15,18,17.60
2019,03,18,15,19,17.60
2019,03,18,15,20,17.60
2019,03,18,15,21,17.60
2019,03,18,15,22,17.60
2019,03,18,15,23,17.70
2019,03,18,15,24,17.70
2019,03,18,15,25,17.70
2019,03,18,15,26,17.80
2019,03,18,15,27,17.80
2019,03,18,15,28,17.80
2019,03,18,15,29,17.80
2019,03,18,15,30,17.90
2019,03,18,15,31,17.90
2019,03,18,15,32,17.90
2019,03,18,15,33,17.90
2019,03,18,15,34,17.90
2019,03,18,15,35,17.90
2019,03,18,15,36,17.90
2019,03,18,15,37,18.00
2019,03,18,15,38,18.00
2019,03,18,15,39,18.00
2019,03,18,15,40,18.00
2019,03,18,15,41,18.00
2019,03,18,15,42,18.10
2019,03,18,15,43,18.10
2019,03,18,15,44,18.10
2019,03,18,15,45,18.10
2019,03,18,15,46,18.10
2019,03,18,15,47,18.10
2019,03,18,15,48,18.10
2019,03,18,15,49,18.10
2019,03,18,15,50,18.10
2019,03,18,15,51,18.10
2019,03,18,15,52,18.10
2019,03,18,15,53,18.10
2019,03,18,15,54,18.10
2019,03,18,15,55,18.20
2019,03,18,15,56,18.20
2019,03,18,15,57,18.20
2019,03,18,15,58,18.20
2019,03,18,15,59,18.30
2019,03,18,16,00,18.30
2019,03,18,16,01,18.30
2019,03,18,16,02,18.30
2019,03,18,16,03,18.30
2019,03,18,16,04,18.30
2019,03,18,16,05,18.30
2019,03,18,16,06,18.30
2019,03,18,16,07,18.30
2019,03,18,16,08,18.30
2019,03,18,16,09,18.30
2019,03,18,16,10,18.30
2019,03,18,16,11,18.30
2019,03,18,16,12,18.30
2019,03,18,16,13,18.30
2019,03,18,16,14,18.20
2019,03,18,16,15,18.20
2019,03,18,16,16,18.10
2019,03,18,16,17,18.10
2019,03,18,16,18,18.00
2019,03,18,16,19,18.00
2019,03,18,16,20,18.00
2019,03,18,16,21,17.90
2019,03,18,16,22,17.90
2019,03,18,16,23,17.90
2019,03,18,16,24,17.90
2019,03,18,16,25,17.90
2019,03,18,16,26,17.90
2019,03,18,16,27,17.90
2019,03,18,16,28,17.90
2019,03,18,16,29,18.00
2019,03,18,16,30,18.00
2019,03,18,16,31,18.10
2019,03,18,16,32,18.10
2019,03,18,16,33,18.10
2019,03,18,16,34,18.10
2019,03,18,16,35,18.10
2019,03,18,16,36,18.10
2019,03,18,16,37,18.10
2019,03,18,16,38,18.10
2019,03,18,16,39,18.10
2019,03,18,16,40,18.10
2019,03,18,16,41,18.10
2019,03,18,16,42,18.10
2019,03,18,16,43,18.10
2019,03,18,16,44,18.10
2019,03,18,16,45,18.10
2019,03,18,16,46,18.10
2019,03,18,16,47,18.10
2019,03,18,16,48,18.20
2019,03,18,16,49,18.20
2019,03,18,16,50,18.20
2019,03,18,16,51,18.20
2019,03,18,16,52,18.20
2019,03,18,16,53,18.20
2019,03,18,16,54,18.20
2019,03,18,16,55,18.30
2019,03,18,16,56,18.30
2019,03,18,16,57,18.30
2019,03,18,16,58,18.30
2019,03,18,16,59,18.30
2019,03,18,17,00,18.20
2019,03,18,17,01,18.20
2019,03,18,17,02,18.20
2019,03,18,17,03,18.20
2019,03,18,17,04,18.20
2019,03,18,17,05,18.20
2019,03,18,17,06,18.20
2019,03,18,17,07,18.20
2019,03,18,17,08,18.20
2019,03,18,17,09,18.20
2019,03,18,17,10,18.20
2019,03,18,17,11,18.10
2019,03,18,17,12,18.10
2019,03,18,17,13,18.10
2019,03,18,17,14,18.00
2019,03,18,17,15,17.90
2019,03,18,17,16,17.90
2019,03,18,17,17,17.90
2019,03,18,17,18,17.90
2019,03,18,17,19,17.90
2019,03,18,17,20,17.90
2019,03,18,17,21,17.90
2019,03,18,17,22,17.90
2019,03,18,17,23,17.90
2019,03,18,17,24,17.80
2019,03,18,17,25,17.80
2019,03,18,17,26,17.80
2019,03,18,17,27,17.80
2019,03,18,17,28,17.80
2019,03,18,17,29,17.70
2019,03,18,17,30,17.70
2019,03,18,17,31,17.70
2019,03,18,17,32,17.70
2019,03,18,17,33,17.70
2019,03,18,17,34,17.70
2019,03,18,17,35,17.70
2019,03,18,17,36,17.70
2019,03,18,17,37,17.70
2019,03,18,17,38,17.70
2019,03,18,17,39,17.70
2019,03,18,17,40,17.70
2019,03,18,17,41,17.60
2019,03,18,17,42,17.60
2019,03,18,17,43,17.60
2019,03,18,17,44,17.60
2019,03,18,17,45,17.50
2019,03,18,17,46,17.50
2019,03,18,17,47,17.50
2019,03,18,17,48,17.50
2019,03,18,17,49,17.50
2019,03,18,17,50,17.50
2019,03,18,17,51,17.50
2019,03,18,17,52,17.60
2019,03,18,17,53,17.60
2019,03,18,17,54,17.60
2019,03,18,17,55,17.60
2019,03,18,17,56,17.50
2019,03,18,17,57,17.50
2019,03,18,17,58,17.50
2019,03,18,17,59,17.50
2019,03,18,18,00,17.50
2019,03,18,18,01,17.50
2019,03,18,18,02,17.60
2019,03,18,18,03,17.50
2019,03,18,18,04,17.50
2019,03,18,18,05,17.50
2019,03,18,18,06,17.50
2019,03,18,18,07,17.40
2019,03,18,18,08,17.40
2019,03,18,18,09,17.40
2019,03,18,18,10,17.40
2019,03,18,18,11,17.40
2019,03,18,18,12,17.40
2019,03,18,18,13,17.30
2019,03,18,18,14,17.30
2019,03,18,18,15,17.30
2019,03,18,18,16,17.30
2019,03,18,18,17,17.30
2019,03,18,18,18,17.30
2019,03,18,18,19,17.20
2019,03,18,18,20,17.20
2019,03,18,18,21,17.10
2019,03,18,18,22,17.10
2019,03,18,18,23,17.10
2019,03,18,18,24,17.10
2019,03,18,18,25,17.10
2019,03,18,18,26,17.00
2019,03,18,18,27,17.00
2019,03,18,18,28,17.00
2019,03,18,18,29,17.00
2019,03,18,18,30,17.00
2019,03,18,18,31,17.00
2019,03,18,18,32,17.00
2019,03,18,18,33,17.00
2019,03,18,18,34,17.00
2019,03,18,18,35,16.90
2019,03,18,18,36,16.90
2019,03,18,18,37,16.90
2019,03,18,18,38,16.90
2019,03,18,18,39,16.90
2019,03,18,18,40,16.80
2019,03,18,18,41,16.80
2019,03,18,18,42,16.80
2019,03,18,18,43,16.80
2019,03,18,18,44,16.70
2019,03,18,18,45,16.70
2019,03,18,18,46,16.70
2019,03,18,18,47,16.70
2019,03,18,18,48,16.60
2019,03,18,18,49,16.60
2019,03,18,18,50,16.60
2019,03,18,18,51,16.50
2019,03,18,18,52,16.50
2019,03,18,18,53,16.50
2019,03,18,18,54,16.50
2019,03,18,18,55,16.40
2019,03,18,18,56,16.40
2019,03,18,18,57,16.40
2019,03,18,18,58,16.40
2019,03,18,18,59,16.30
2019,03,18,19,00,16.30
2019,03,18,19,01,16.30
2019,03,18,19,02,16.30
2019,03,18,19,03,16.30
2019,03,18,19,04,16.30
2019,03,18,19,05,16.20
2019,03,18,19,06,16.20
2019,03,18,19,07,16.20
2019,03,18,19,08,16.20
2019,03,18,19,09,16.10
2019,03,18,19,10,16.10
2019,03,18,19,11,16.10
2019,03,18,19,12,16.10
2019,03,18,19,13,16.00
2019,03,18,19,14,16.00
2019,03,18,19,15,16.00
2019,03,18,19,16,15.90
2019,03,18,19,17,15.90
2019,03,18,19,18,15.90
2019,03,18,19,19,15.90
2019,03,18,19,20,15.80
2019,03,18,19,21,15.80
2019,03,18,19,22,15.80
2019,03,18,19,23,15.80
2019,03,18,19,24,15.80
2019,03,18,19,25,15.80
2019,03,18,19,26,15.70
2019,03,18,19,27,15.70
2019,03,18,19,28,15.70
2019,03,18,19,29,15.70
2019,03,18,19,30,15.60
2019,03,18,19,31,15.60
2019,03,18,19,32,15.60
2019,03,18,19,33,15.50
2019,03,18,19,34,15.50
2019,03,18,19,35,15.50
2019,03,18,19,36,15.40
2019,03,18,19,37,15.40
2019,03,18,19,38,15.40
2019,03,18,19,39,15.40
2019,03,18,19,40,15.40
2019,03,18,19,41,15.30
2019,03,18,19,42,15.30
2019,03,18,19,43,15.30
2019,03,18,19,44,15.30
2019,03,18,19,45,15.30
2019,03,18,19,46,15.30
2019,03,18,19,47,15.20
2019,03,18,19,48,15.20
2019,03,18,19,49,15.20
2019,03,18,19,50,15.20
2019,03,18,19,51,15.20
2019,03,18,19,52,15.10
2019,03,18,19,53,15.10
2019,03,18,19,54,15.10
2019,03,18,19,55,15.10
2019,03,18,19,56,15.00
2019,03,18,19,57,15.00
2019,03,18,19,58,14.90
2019,03,18,19,59,14.90
2019,03,18,20,00,14.90
2019,03,18,20,01,14.90
2019,03,18,20,02,14.80
2019,03,18,20,03,14.80
2019,03,18,20,04,14.80
2019,03,18,20,05,14.70
2019,03,18,20,06,14.70
2019,03,18,20,07,14.70
2019,03,18,20,08,14.70
2019,03,18,20,09,14.60
2019,03,18,20,10,14.60
2019,03,18,20,11,14.60
2019,03,18,20,12,14.60
2019,03,18,20,13,14.60
2019,03,18,20,14,14.50
2019,03,18,20,15,14.50
2019,03,18,20,16,14.50
2019,03,18,20,17,14.50
2019,03,18,20,18,14.40
2019,03,18,20,19,14.40
2019,03,18,20,20,14.40
2019,03,18,20,21,14.40
2019,03,18,20,22,14.40
2019,03,18,20,23,14.30